Regional Weather Roundup
Issued by NWS

Home | Current Version | Previous Version | Graphics & Text | Print | Product List | Glossary On
Versions: 1 2 3 4 5 6 7 8 9 10 11 12 13 14 15 16 17 18 19 20 21 22 23 24 25 26 27 28 29 30 31 32 33 34 35 36 37 38 39 40 41 42 43 44 45 46 47 48 49 50
000
ASUS43 KOAX 192102
RWRNE

WEATHER ROUNDUP FOR NEBRASKA
NATIONAL WEATHER SERVICE OMAHA NE
400 PM CDT TUE SEP 19 2017

NOTES: SATELLITE DATA IS BEING USED TO AUGMENT CLOUD COVER ABOVE
       12000 FEET.
       "FAIR" INDICATES FEW OR NO CLOUDS BELOW 12,000 FEET WITH NO
       SIGNIFICANT WEATHER AND/OR OBSTRUCTIONS TO VISIBILITY.


NEZ001>004-019>022-054>056-192200-
NEBRASKA PANHANDLE

CITY           SKY/WX    TMP DP  RH WIND       PRES   REMARKS
SCOTTSBLUFF    CLOUDY    79  50  36 NW7       29.56R
ALLIANCE       CLOUDY    83  39  21 S13       29.54F
CHADRON        CLOUDY    74  40  29 NW36G48   29.61R
GORDON         FAIR      78  48  34 W7        29.54S
KIMBALL        SUNNY     86  29  13 SW10G17   29.61S
SIDNEY         CLOUDY    85  25  11 S8        29.58F
$$

NEZ057>060-069>072-079>082-192200-
SOUTHWEST NEBRASKA

CITY           SKY/WX    TMP DP  RH WIND       PRES   REMARKS
NORTH PLATTE   CLOUDY    91  46  21 S12       29.48F
IMPERIAL       CLOUDY    91  35  13 W7        29.51F
LEXINGTON      CLOUDY    90  53  28 S16       29.51F
MCCOOK         CLOUDY    92  44  19 S21G28    29.50F
OGALLALA       CLOUDY    87  34  15 SW6       29.52F
$$

NEZ005>010-023>029-035>040-094-192200-
NORTH CENTRAL NEBRASKA

CITY           SKY/WX    TMP DP  RH WIND       PRES   REMARKS
VALENTINE      CLOUDY    83  60  45 SW15      29.49F
AINSWORTH      CLOUDY    82  64  54 S15G23    29.50F
BROKEN BOW     CLOUDY    86  61  42 S20       29.51F
O`NEILL        MOSUNNY   84  67  57 S22G29    29.50F
ORD            CLOUDY    84  63  49 SE16G25   29.50F
THEDFORD       CLOUDY    85  56  36 S15G24    29.52S
$$

NEZ041-046>049-061>064-073>077-083>087-192200-
SOUTH CENTRAL NEBRASKA

CITY           SKY/WX    TMP DP  RH WIND       PRES   REMARKS
GRAND ISLAND   CLOUDY    87  68  52 SE21G29   29.54F HX  90
AURORA         CLOUDY    88  65  45 S21G26    29.56F HX  90
HASTINGS       SUNNY     91  62  37 S21G32    29.55F HX  91
HEBRON         SUNNY     93  64  38 S20G30    29.57F HX  95
HOLDREGE       CLOUDY    94  51  23 S21G31    29.50F HX  91
KEARNEY        CLOUDY    92  63  38 S25G32    29.51F HX  93
YORK           SUNNY     90  66  45 S18G31    29.56F HX  92
$$

NEZ011>018-030>034-042>045-192200-
NORTHEAST NEBRASKA

CITY           SKY/WX    TMP DP  RH WIND       PRES   REMARKS
NORFOLK        CLOUDY    86  68  54 SE23G37   29.53F
ALBION         CLOUDY    85  69  60 S21G33    29.53F
BLAIR          MOSUNNY   88  67  49 SE17G32   29.62F HX  91
COLUMBUS       CLOUDY    89  68  49 S22G30    29.55F HX  93
FREMONT        MOSUNNY   87  68  51 SE21G31   29.60F HX  91
TEKAMAH        MOSUNNY   87  67  51 S25G33    29.60F HX  90
WAYNE          CLOUDY    83  71  68 SE21G32   29.57F
$$

NEZ050>053-065>068-078-088>093-192200-
SOUTHEAST NEBRASKA

CITY           SKY/WX    TMP DP  RH WIND       PRES   REMARKS
LINCOLN        SUNNY     92  67  43 S28G36    29.58F HX  95
OMAHA EPPLEY   MOSUNNY   90  65  43 SE26G38   29.62F HX  92
BEATRICE       SUNNY     92  69  46 S21G30    29.59F HX  96
FALLS CITY     SUNNY     88  69  53 SE22G33   29.65F HX  92
NEBRASKA CITY  MOSUNNY   88  69  53 S23G33    29.65F HX  92
PLATTSMOUTH    SUNNY     88  68  51 SE22G30   29.64F HX  92
$$

NEZ044-045-051>053-067-192200-
OMAHA AREA

CITY           SKY/WX    TMP DP  RH WIND       PRES   REMARKS
OMAHA EPPLEY   MOSUNNY   90  65  43 SE26G38   29.62F HX  92
BLAIR          MOSUNNY   88  67  49 SE17G32   29.62F HX  91
FREMONT        MOSUNNY   87  68  51 SE21G31   29.60F HX  91
MILLARD        SUNNY     90  69  50 SE22G32   29.61F HX  94
OFFUTT AFB     SUNNY     89  67  47 SE25G32   29.61F HX  91
PLATTSMOUTH    SUNNY     88  68  51 SE22G30   29.64F HX  92
WAHOO          FAIR      90  65  44 S22G30    29.59F HX  91
$$



USA.gov is the U.S. government's official web portal to all federal, state and local government web resources and services.